Location: Rounton
(54.4000°N, 1.3500°W)
Time: 14:13:16
(UTC+00:00)

Altair - Pass Details

Date: 03 December 2021
Orbit: 1501 x 1683 km, 47.2° (Epoch: 19 January)

Event Time Altitude Azimuth Distance (km) Brightness Sun altitude
Rises 21:54:24 0° 282° (WNW) 4,666 10.5 -50.6°
Reaches altitude 10° 21:57:57 10° 272° (W) 3,668 9.8 -51.0°
Enters shadow 22:00:23 18° 261° (W) 3,085 9.2 -51.3°
Maximum altitude 22:05:21 29° 218° (SW) 2,496 - -51.8°
Drops below altitude 10° 22:12:45 10° 163° (SSE) 3,656 - -52.5°
Sets 22:16:17 0° 153° (SSE) 4,648 - -52.8°
